OPS 4682 DEB, 51502

Orbit data source: Space-Track

OPS 4682 DEB, 51502 is space debris in LEO originally from a launch on Sat, 03 Apr 1965 UTC launched from the Air Force Western Test Range (AFWTR). Debris objects in space refer to the collection of defunct objects orbiting the Earth. Examples of debris include non-operational satellites, rocket bodies, and fragments generated from explosions, collisions, or faulty payload assembly.

Loading next visibility...
Identifier
51502, 1965-027GN
Orbit
LEO
Country
Flag of USUS
Related business
Manufacturer
Unknown
Mission
Spacecraft
Bus & Motor
Unknown
Mass
Unknown
Launch date (UTC)
1965-04-03 (61 years ago)
Launch vehicle
Unknown
Launch site
Air Force Western Test Range (AFWTR)
Object type
Payload
Rocket body
Debris
Shape & HBR
Unknown shape, 1.1 m
Radar Cross Section
Small (<0.1 m²)

Expand to show TLE details & history
Last TLE update: 1 week ago

TLE from 1 week ago
0 OPS 4682 DEB
1 51502U 65027GN  26253.59664204  .00000485  00000-0  16199-2 0  9992
2 51502  90.2460   3.9057 0030899 136.7890 223.5664 12.98363452355243
Epoch: 2026-09-10T14:19Z
TLE epoch observation values (Epoch: 2026-09-10T14:19:09.872Z)
Latitude
0.00005°
Longitude
159.48249°
Altitude
1,288.544 km
Speed
7.204 km/s
True Right ascension
00h 15m 37s
True Declination
0° 00' 00"
Sunlit
Object was in full shadow at epoch
Visualization orbit readout
Latitude
Unknown
Longitude
Unknown
Altitude
Unknown
Speed
Unknown
Apparent Right ascension
Unknown
Apparent Declination
Unknown
Sunlit
N/A
Visualization observer readout
Local Sidereal Time
07:00:26
Azimuth
Unknown
Elevation
Unknown
Doppler factor
Unknown
Orbital elements
Apogee altitude
1,289.253 km
Perigee altitude
1,242.016 km
Semi-major axis
7,643.772 km
Eccentricity
0.00309
Inclination
90.246°
RAAN
3.9057°
Arg. of periapsis
136.789°
True anomaly
223.32305°
Mean anomaly
223.5664°
Eccentric anomaly
223.44466°
Mean motion
3.24774 °/min
Orbital period
110.85 mins
BSTAR
0.0016199
Loading maneuver chart data...
Computing Atmospheric mass density...
Loading historical data...
Loading historical data...
Loading historical data...
Loading historical data...
Loading historical data...
Loading historical data...
Loading historical data...

Documentation

Showing up to 5 results
|